| time (UTC) | temp F | wind direction | speed knots | gust knots | rain 1hr in | rain 24hr in | rain mn in | humidity % | barometer mb |
| 20260505124602 | 37 | 151 | 3.5 | 9.6 | 0.00 | 0.01 | 0.00 | 79 | 1007.0 |
| 20260505123603 | 37 | 88 | 5.2 | 13.9 | 0.00 | 0.01 | 0.00 | 79 | 1006.9 |
| 20260505122602 | 37 | 99 | 6.1 | 13.9 | 0.00 | 0.01 | 0.00 | 78 | 1006.9 |
| 20260505122105 | 37 | 114 | 5.2 | 13.9 | 0.00 | 0.01 | 0.00 | 78 | 1006.7 |
| 20260505121602 | 37 | 88 | 3.5 | 10.4 | 0.00 | 0.01 | 0.00 | 78 | 1006.7 |
| 20260505121102 | 37 | 209 | 1.7 | 7.8 | 0.00 | 0.01 | 0.00 | 78 | 1006.7 |
| 20260505120602 | 37 | 99 | 3.5 | 10.4 | 0.00 | 0.01 | 0.00 | 78 | 1006.7 |
| 20260505120333 | 37 | 153 | 5.2 | 10.4 | 0.00 | 0.01 | 0.00 | 78 | 1006.6 |
| 20260505115103 | 38 | 86 | 4.3 | 10.4 | 0.00 | 0.01 | 0.00 | 77 | 1006.6 |
| 20260505114605 | 38 | 223 | 3.5 | 9.6 | 0.00 | 0.01 | 0.00 | 76 | 1006.5 |
| 20260505114101 | 38 | 103 | 3.5 | 9.6 | 0.00 | 0.01 | 0.00 | 76 | 1006.5 |
| 20260505113600 | 38 | 104 | 3.5 | 9.6 | 0.00 | 0.01 | 0.00 | 76 | 1006.6 |
| 20260505113100 | 38 | 85 | 1.7 | 7.0 | 0.00 | 0.01 | 0.00 | 76 | 1006.7 |
| 20260505112602 | 38 | 138 | 0.9 | 7.0 | 0.00 | 0.01 | 0.00 | 76 | 1006.7 |
| 20260505112055 | 37 | 176 | 1.7 | 4.3 | 0.00 | 0.01 | 0.00 | 76 | 1006.7 |
| 20260505111553 | 37 | 153 | 1.7 | 5.2 | 0.00 | 0.01 | 0.00 | 76 | 1006.6 |
| 20260505111054 | 37 | 140 | 0.9 | 5.2 | 0.00 | 0.01 | 0.00 | 76 | 1006.6 |
| 20260505110552 | 37 | 173 | 0.9 | 5.2 | 0.00 | 0.01 | 0.00 | 76 | 1006.7 |
| 20260505102050 | 38 | 145 | 1.7 | 6.1 | 0.00 | 0.01 | 0.00 | 73 | 1006.5 |
| 20260505101818 | 38 | 189 | 1.7 | 6.1 | 0.00 | 0.01 | 0.00 | 72 | 1006.5 |
| 20260505101052 | 38 | 81 | 1.7 | 6.1 | 0.00 | 0.01 | 0.00 | 72 | 1006.6 |
| 20260505100550 | 38 | 123 | 1.7 | 7.0 | 0.00 | 0.01 | 0.00 | 72 | 1006.5 |
| 20260505100051 | 38 | 208 | 0.9 | 7.0 | 0.00 | 0.01 | 0.00 | 71 | 1006.5 |
| 20260505095547 | 38 | 126 | 0.9 | 5.2 | 0.00 | 0.01 | 0.00 | 70 | 1006.6 |
| 20260505095048 | 38 | 120 | 0.9 | 5.2 | 0.00 | 0.01 | 0.00 | 70 | 1006.5 |
| 20260505094547 | 39 | 149 | 1.7 | 6.1 | 0.00 | 0.01 | 0.00 | 69 | 1006.6 |
| 20260505094046 | 39 | 87 | 1.7 | 6.1 | 0.00 | 0.01 | 0.00 | 69 | 1006.4 |
| 20260505093546 | 39 | 86 | 1.7 | 5.2 | 0.00 | 0.01 | 0.00 | 69 | 1006.4 |
| 20260505093046 | 39 | 148 | 1.7 | 5.2 | 0.00 | 0.01 | 0.00 | 68 | 1006.3 |
| 20260505092816 | 39 | 98 | 2.6 | 5.2 | 0.00 | 0.01 | 0.00 | 68 | 1006.3 |
| 20260505092044 | 39 | 150 | 4.3 | 8.7 | 0.00 | 0.01 | 0.00 | 68 | 1006.3 |
| 20260505091544 | 39 | 86 | 3.5 | 8.7 | 0.00 | 0.01 | 0.00 | 68 | 1006.3 |
| 20260505091536 | 39 | 122 | 1.7 | 8.7 | 0.00 | 0.01 | 0.00 | 68 | 1006.3 |
| 20260505090541 | 39 | 101 | 1.7 | 6.1 | 0.00 | 0.01 | 0.00 | 68 | 1006.1 |
| 20260505090042 | 39 | 154 | 1.7 | 6.1 | 0.00 | 0.01 | 0.00 | 68 | 1006.3 |
| 20260505085542 | 39 | 106 | 0.9 | 8.7 | 0.00 | 0.01 | 0.00 | 67 | 1006.1 |
| 20260505085043 | 40 | 142 | 0.9 | 8.7 | 0.00 | 0.01 | 0.00 | 67 | 1006.3 |
| 20260505084540 | 40 | 110 | 3.5 | 8.7 | 0.00 | 0.01 | 0.00 | 66 | 1006.0 |
| 20260505084041 | 40 | 95 | 3.5 | 10.4 | 0.00 | 0.01 | 0.00 | 65 | 1006.1 |
| 20260505083540 | 41 | 73 | 3.5 | 10.4 | 0.00 | 0.01 | 0.00 | 66 | 1006.3 |
| 20260505083530 | 41 | 107 | 3.5 | 9.6 | 0.00 | 0.01 | 0.00 | 65 | 1006.1 |
| 20260505082541 | 41 | 81 | 0.9 | 6.1 | 0.00 | 0.01 | 0.00 | 66 | 1006.1 |
| 20260505082036 | 41 | 106 | 2.6 | 6.1 | 0.00 | 0.01 | 0.00 | 66 | 1006.1 |
| 20260505081538 | 41 | 92 | 3.5 | 7.8 | 0.00 | 0.01 | 0.00 | 66 | 1006.3 |
| 20260505081036 | 41 | 100 | 3.5 | 7.8 | 0.00 | 0.01 | 0.00 | 67 | 1006.3 |
| 20260505080537 | 41 | 101 | 4.3 | 11.3 | 0.00 | 0.01 | 0.00 | 67 | 1006.3 |
| 20260505080036 | 41 | 107 | 3.5 | 11.3 | 0.00 | 0.01 | 0.00 | 67 | 1006.3 |
| 20260505075541 | 41 | 107 | 1.7 | 6.1 | 0.00 | 0.01 | 0.00 | 67 | 1006.3 |
| 20260505075038 | 42 | 151 | 0.9 | 5.2 | 0.00 | 0.01 | 0.00 | 67 | 1006.4 |
| 20260505074805 | 42 | 123 | 2.6 | 7.0 | 0.00 | 0.01 | 0.00 | 66 | 1006.4 |
| 20260505074311 | 42 | 146 | 2.6 | 7.8 | 0.00 | 0.01 | 0.00 | 66 | 1006.4 |
| 20260505073530 | 42 | 69 | 2.6 | 7.8 | 0.00 | 0.01 | 0.00 | 66 | 1006.4 |
| 20260505073031 | 42 | 71 | 3.5 | 9.6 | 0.00 | 0.01 | 0.00 | 66 | 1006.5 |
| 20260505072531 | 43 | 86 | 4.3 | 9.6 | 0.00 | 0.01 | 0.00 | 65 | 1006.3 |
| 20260505072033 | 43 | 61 | 5.2 | 11.3 | 0.00 | 0.01 | 0.00 | 66 | 1006.4 |
| 20260505071532 | 43 | 69 | 5.2 | 11.3 | 0.00 | 0.01 | 0.00 | 66 | 1006.3 |
| 20260505071030 | 43 | 59 | 5.2 | 11.3 | 0.00 | 0.01 | 0.00 | 67 | 1006.4 |
| 20260505070530 | 43 | 50 | 5.2 | 11.3 | 0.00 | 0.01 | 0.00 | 67 | 1006.3 |
| 20260505070302 | 43 | 340 | 5.2 | 10.4 | 0.00 | 0.01 | 0.00 | 68 | 1006.4 |
| 20260505065530 | 43 | 17 | 5.2 | 10.4 | 0.00 | 0.01 | 0.00 | 68 | 1006.3 |
| 20260505065030 | 43 | 328 | 6.1 | 12.2 | 0.00 | 0.01 | 0.00 | 68 | 1006.3 |
| 20260505064529 | 43 | 339 | 5.2 | 12.2 | 0.00 | 0.01 | 0.00 | 69 | 1006.4 |
| 20260505064307 | 43 | 17 | 5.2 | 9.6 | 0.00 | 0.01 | 0.00 | 70 | 1006.4 |
| 20260505063528 | 43 | 325 | 5.2 | 9.6 | 0.00 | 0.01 | 0.00 | 71 | 1006.4 |
| 20260505063028 | 43 | 338 | 4.3 | 9.6 | 0.00 | 0.01 | 0.00 | 72 | 1006.5 |
| 20260505062528 | 43 | 41 | 4.3 | 9.6 | 0.00 | 0.01 | 0.00 | 70 | 1006.3 |
| 20260505062255 | 43 | 28 | 3.5 | 7.8 | 0.00 | 0.01 | 0.00 | 71 | 1006.3 |
| 20260505061525 | 43 | 53 | 3.5 | 7.8 | 0.00 | 0.01 | 0.00 | 71 | 1006.4 |
| 20260505061019 | 44 | 49 | 6.1 | 7.8 | 0.00 | 0.01 | 0.00 | 72 | 1006.4 |
| 20260505060514 | 44 | 53 | 6.1 | 11.3 | 0.00 | 0.01 | 0.00 | 70 | 1006.4 |
| 20260505060012 | 44 | 55 | 6.1 | 11.3 | 0.00 | 0.01 | 0.00 | 70 | 1006.3 |
| 20260505055739 | 45 | 62 | 6.1 | 11.3 | 0.00 | 0.01 | 0.01 | 69 | 1006.1 |
| 20260505055011 | 46 | 47 | 5.2 | 11.3 | 0.00 | 0.01 | 0.01 | 69 | 1006.1 |
| 20260505054511 | 46 | 64 | 5.2 | 11.3 | 0.00 | 0.01 | 0.01 | 70 | 1006.0 |
| 20260505054010 | 46 | 55 | 6.1 | 11.3 | 0.00 | 0.01 | 0.01 | 69 | 1005.9 |
| 20260505053509 | 46 | 70 | 6.1 | 8.7 | 0.01 | 0.01 | 0.01 | 70 | 1005.9 |
| 20260505053503 | 47 | 61 | 6.1 | 9.6 | 0.01 | 0.01 | 0.01 | 69 | 1006.1 |
| 20260505052510 | 47 | 65 | 6.1 | 9.6 | 0.01 | 0.01 | 0.01 | 70 | 1006.1 |
| 20260505052008 | 47 | 57 | 5.2 | 8.7 | 0.01 | 0.01 | 0.01 | 70 | 1006.0 |
| 20260505051508 | 47 | 92 | 4.3 | 8.7 | 0.01 | 0.01 | 0.01 | 70 | 1006.0 |
| 20260505051012 | 47 | 61 | 5.2 | 12.2 | 0.01 | 0.01 | 0.01 | 69 | 1006.1 |
| 20260505050508 | 47 | 84 | 6.1 | 16.5 | 0.01 | 0.01 | 0.01 | 70 | 1006.1 |
| 20260505050454 | 47 | 92 | 7.0 | 16.5 | 0.01 | 0.01 | 0.01 | 68 | 1006.1 |
| 20260505041503 | 51 | 68 | 8.7 | 13.9 | 0.00 | 0.00 | 0.00 | 46 | 1006.0 |
| 20260505041002 | 52 | 81 | 9.6 | 16.5 | 0.00 | 0.00 | 0.00 | 46 | 1005.9 |
| 20260505040503 | 52 | 82 | 10.4 | 16.5 | 0.00 | 0.00 | 0.00 | 45 | 1005.7 |
| 20260505040005 | 52 | 89 | 7.8 | 18.2 | 0.00 | 0.00 | 0.00 | 46 | 1005.5 |
| 20260505035502 | 52 | 67 | 4.3 | 18.2 | 0.00 | 0.00 | 0.00 | 47 | 1005.5 |
| 20260505035001 | 52 | 53 | 2.6 | 8.7 | 0.00 | 0.00 | 0.00 | 54 | 1005.3 |
| 20260505034503 | 52 | 90 | 3.5 | 8.7 | 0.00 | 0.00 | 0.00 | 53 | 1005.2 |
| 20260505034001 | 52 | 171 | 4.3 | 8.7 | 0.00 | 0.00 | 0.00 | 53 | 1004.9 |
| 20260505033735 | 52 | 166 | 6.1 | 13.0 | 0.00 | 0.00 | 0.00 | 55 | 1004.8 |
| 20260505033001 | 53 | 168 | 7.0 | 20.9 | 0.00 | 0.00 | 0.00 | 52 | 1004.8 |
| 20260505032501 | 53 | 192 | 7.8 | 20.9 | 0.00 | 0.00 | 0.00 | 53 | 1004.7 |
| 20260505032002 | 54 | 92 | 13.0 | 28.7 | 0.00 | 0.00 | 0.00 | 48 | 1004.8 |
| 20260505031727 | 55 | 53 | 11.3 | 28.7 | 0.00 | 0.00 | 0.00 | 44 | 1004.6 |
| 20260505031003 | 56 | 355 | 8.7 | 16.5 | 0.00 | 0.00 | 0.00 | 37 | 1004.1 |
| 20260505030503 | 56 | 59 | 10.4 | 18.2 | 0.00 | 0.00 | 0.00 | 37 | 1004.1 |
| 20260505030002 | 56 | 55 | 10.4 | 18.2 | 0.00 | 0.00 | 0.00 | 36 | 1004.0 |
| 20260505025730 | 56 | 59 | 10.4 | 18.2 | 0.00 | 0.00 | 0.00 | 36 | 1003.8 |
| 20260505025004 | 57 | 86 | 11.3 | 20.9 | 0.00 | 0.00 | 0.00 | 35 | 1003.7 |
| 20260505024503 | 57 | 79 | 11.3 | 20.9 | 0.00 | 0.00 | 0.00 | 35 | 1003.5 |
| 20260505024002 | 57 | 61 | 10.4 | 19.1 | 0.00 | 0.00 | 0.00 | 35 | 1003.4 |
| 20260505023504 | 57 | 80 | 11.3 | 24.3 | 0.00 | 0.00 | 0.00 | 35 | 1003.2 |
| 20260505023459 | 57 | 78 | 14.8 | 24.3 | 0.00 | 0.00 | 0.00 | 34 | 1003.0 |
| 20260505022502 | 57 | 85 | 15.6 | 24.3 | 0.00 | 0.00 | 0.00 | 34 | 1003.0 |
| 20260505022002 | 58 | 67 | 14.8 | 24.3 | 0.00 | 0.00 | 0.00 | 34 | 1002.8 |
| 20260505021505 | 58 | 56 | 14.8 | 24.3 | 0.00 | 0.00 | 0.00 | 33 | 1002.6 |
| 20260505021458 | 58 | 79 | 16.5 | 24.3 | 0.00 | 0.00 | 0.00 | 33 | 1002.5 |
| 20260505020502 | 59 | 53 | 15.6 | 27.8 | 0.00 | 0.00 | 0.00 | 32 | 1002.3 |
| 20260505020004 | 60 | 71 | 13.9 | 27.8 | 0.00 | 0.00 | 0.00 | 31 | 1002.0 |
| 20260505015504 | 61 | 58 | 10.4 | 22.6 | 0.00 | 0.00 | 0.00 | 29 | 1002.2 |
| 20260505015002 | 62 | 92 | 7.0 | 13.9 | 0.00 | 0.00 | 0.00 | 24 | 1002.0 |
| 20260505014733 | 62 | 68 | 4.3 | 9.6 | 0.00 | 0.00 | 0.00 | 24 | 1002.0 |
| 20260505014002 | 62 | 23 | 2.6 | 7.8 | 0.00 | 0.00 | 0.00 | 24 | 1002.2 |
| 20260505013733 | 62 | 10 | 3.5 | 7.8 | 0.00 | 0.00 | 0.00 | 24 | 1002.3 |
| 20260505013004 | 62 | 53 | 5.2 | 15.6 | 0.00 | 0.00 | 0.00 | 24 | 1002.2 |
| 20260505012502 | 63 | 80 | 7.8 | 15.6 | 0.00 | 0.00 | 0.00 | 22 | 1002.3 |
| 20260505012002 | 63 | 49 | 9.6 | 18.2 | 0.00 | 0.00 | 0.00 | 22 | 1002.2 |
| 20260505011502 | 63 | 58 | 10.4 | 18.2 | 0.00 | 0.00 | 0.00 | 22 | 1001.9 |
| 20260505011005 | 64 | 350 | 10.4 | 18.2 | 0.00 | 0.00 | 0.00 | 22 | 1001.8 |
| 20260505010731 | 64 | 343 | 9.6 | 19.1 | 0.00 | 0.00 | 0.00 | 22 | 1001.8 |
| 20260505010004 | 64 | 40 | 9.6 | 19.1 | 0.00 | 0.00 | 0.00 | 21 | 1001.8 |
| 20260505005502 | 64 | 41 | 11.3 | 20.0 | 0.00 | 0.00 | 0.00 | 21 | 1001.8 |
| 20260505005231 | 65 | 327 | 10.4 | 20.0 | 0.00 | 0.00 | 0.00 | 21 | 1001.7 |
| 20260505004728 | 66 | 34 | 7.0 | 17.4 | 0.00 | 0.00 | 0.00 | 20 | 1001.7 |
| 20260505004003 | 66 | 35 | 5.2 | 8.7 | 0.00 | 0.00 | 0.00 | 18 | 1001.7 |
| 20260505003501 | 67 | 33 | 6.1 | 15.6 | 0.00 | 0.00 | 0.00 | 18 | 1001.5 |
| 20260505003002 | 67 | 333 | 6.1 | 15.6 | 0.00 | 0.00 | 0.00 | 18 | 1001.7 |
| 20260505002501 | 68 | 333 | 7.0 | 15.6 | 0.00 | 0.00 | 0.00 | 17 | 1001.5 |
| 20260505002000 | 69 | 313 | 6.1 | 15.6 | 0.00 | 0.00 | 0.00 | 17 | 1001.5 |
| 20260505001727 | 69 | 258 | 5.2 | 10.4 | 0.00 | 0.00 | 0.00 | 17 | 1001.4 |
| 20260505001003 | 68 | 304 | 6.1 | 10.4 | 0.00 | 0.00 | 0.00 | 16 | 1001.4 |
| 20260505000501 | 69 | 316 | 6.1 | 10.4 | 0.00 | 0.00 | 0.00 | 17 | 1001.7 |
| 20260505000003 | 68 | 285 | 6.1 | 10.4 | 0.00 | 0.00 | 0.00 | 17 | 1001.5 |
| 20260504235501 | 68 | 36 | 5.2 | 11.3 | 0.00 | 0.00 | 0.00 | 17 | 1001.5 |
| 20260504235001 | 67 | 286 | 5.2 | 11.3 | 0.00 | 0.00 | 0.00 | 17 | 1001.5 |
| 20260504234502 | 67 | 283 | 6.1 | 11.3 | 0.00 | 0.00 | 0.00 | 17 | 1001.7 |
| 20260504233501 | 68 | 29 | 4.3 | 9.6 | 0.00 | 0.00 | 0.00 | 17 | 1001.5 |
| 20260504233001 | 68 | 53 | 6.1 | 18.2 | 0.00 | 0.00 | 0.00 | 18 | 1001.5 |
| 20260504232501 | 67 | 37 | 9.6 | 18.2 | 0.00 | 0.00 | 0.00 | 17 | 1001.5 |
| 20260504232229 | 67 | 56 | 10.4 | 18.2 | 0.00 | 0.00 | 0.00 | 18 | 1001.5 |
| 20260504231002 | 68 | 34 | 9.6 | 16.5 | 0.00 | 0.00 | 0.00 | 17 | 1001.5 |
| 20260504230501 | 68 | 300 | 9.6 | 17.4 | 0.00 | 0.00 | 0.00 | 17 | 1001.5 |
| 20260504230001 | 68 | 338 | 7.8 | 17.4 | 0.00 | 0.00 | 0.00 | 16 | 1001.5 |
| 20260504225502 | 69 | 25 | 6.1 | 16.5 | 0.00 | 0.00 | 0.00 | 16 | 1001.5 |
| 20260504225003 | 69 | 310 | 5.2 | 11.3 | 0.00 | 0.00 | 0.00 | 16 | 1001.4 |
| 20260504224502 | 69 | 301 | 6.1 | 13.0 | 0.00 | 0.00 | 0.00 | 16 | 1001.4 |
| 20260504224001 | 69 | 20 | 7.0 | 13.9 | 0.00 | 0.00 | 0.00 | 16 | 1001.7 |
| 20260504223501 | 69 | 303 | 6.1 | 13.9 | 0.00 | 0.00 | 0.00 | 15 | 1001.5 |
| 20260504223003 | 69 | 318 | 5.2 | 13.0 | 0.00 | 0.00 | 0.00 | 16 | 1001.5 |
| 20260504222501 | 68 | 314 | 7.8 | 17.4 | 0.00 | 0.00 | 0.00 | 16 | 1001.7 |
| 20260504222449 | 68 | 92 | 9.6 | 19.1 | 0.00 | 0.00 | 0.00 | 15 | 1001.7 |
| 20260504221503 | 69 | 297 | 7.8 | 19.1 | 0.00 | 0.00 | 0.00 | 16 | 1001.7 |
| 20260504221001 | 69 | 55 | 6.1 | 12.2 | 0.00 | 0.00 | 0.00 | 17 | 1001.8 |
| 20260504220501 | 69 | 333 | 7.8 | 13.0 | 0.00 | 0.00 | 0.00 | 17 | 1001.8 |
| 20260504220001 | 69 | 314 | 7.8 | 13.0 | 0.00 | 0.00 | 0.00 | 17 | 1001.9 |
| 20260504215504 | 68 | 24 | 5.2 | 10.4 | 0.00 | 0.00 | 0.00 | 18 | 1002.0 |
| 20260504215230 | 67 | 291 | 5.2 | 11.3 | 0.00 | 0.00 | 0.00 | 17 | 1002.0 |
| 20260504214501 | 67 | 55 | 6.1 | 11.3 | 0.00 | 0.00 | 0.00 | 18 | 1002.2 |
| 20260504214003 | 66 | 351 | 6.1 | 13.9 | 0.00 | 0.00 | 0.00 | 18 | 1002.3 |
| 20260504213501 | 66 | 22 | 6.1 | 13.9 | 0.00 | 0.00 | 0.00 | 18 | 1002.5 |
| 20260504213002 | 67 | 311 | 8.7 | 15.6 | 0.00 | 0.00 | 0.00 | 17 | 1002.5 |
| 20260504212504 | 68 | 325 | 7.0 | 15.6 | 0.00 | 0.00 | 0.00 | 16 | 1002.6 |
| 20260504212005 | 69 | 38 | 3.5 | 10.4 | 0.00 | 0.00 | 0.00 | 16 | 1002.6 |
| 20260504211502 | 68 | 217 | 4.3 | 17.4 | 0.00 | 0.00 | 0.00 | 17 | 1002.6 |
| 20260504211004 | 68 | 282 | 7.0 | 17.4 | 0.00 | 0.00 | 0.00 | 16 | 1002.6 |
| 20260504210502 | 67 | 53 | 8.7 | 18.2 | 0.00 | 0.00 | 0.00 | 16 | 1002.8 |
| 20260504210004 | 67 | 302 | 7.8 | 18.2 | 0.00 | 0.00 | 0.00 | 16 | 1002.8 |
| 20260504205728 | 67 | 347 | 5.2 | 12.2 | 0.00 | 0.00 | 0.00 | 17 | 1002.9 |
| 20260504205001 | 66 | 260 | 7.0 | 13.9 | 0.00 | 0.00 | 0.00 | 16 | 1002.9 |
| 20260504204504 | 67 | 296 | 6.1 | 13.9 | 0.00 | 0.00 | 0.00 | 15 | 1003.0 |
| 20260504204003 | 67 | 294 | 6.1 | 12.2 | 0.00 | 0.00 | 0.00 | 16 | 1003.0 |
| 20260504203501 | 68 | 292 | 7.8 | 13.0 | 0.00 | 0.00 | 0.00 | 15 | 1003.1 |
| 20260504203001 | 68 | 311 | 7.8 | 13.0 | 0.00 | 0.00 | 0.00 | 16 | 1003.1 |
| 20260504202503 | 67 | 290 | 6.1 | 12.2 | 0.00 | 0.00 | 0.00 | 17 | 1003.1 |
| 20260504202001 | 68 | 252 | 5.2 | 13.9 | 0.00 | 0.00 | 0.00 | 16 | 1003.2 |
| 20260504201501 | 67 | 319 | 4.3 | 13.9 | 0.00 | 0.00 | 0.00 | 16 | 1003.4 |
| 20260504201001 | 67 | 257 | 4.3 | 10.4 | 0.00 | 0.00 | 0.00 | 17 | 1003.4 |
| 20260504200502 | 66 | 28 | 5.2 | 10.4 | 0.00 | 0.00 | 0.00 | 17 | 1003.6 |
| 20260504200225 | 66 | 74 | 6.1 | 10.4 | 0.00 | 0.00 | 0.00 | 17 | 1003.6 |
| 20260504195501 | 66 | 319 | 6.1 | 11.3 | 0.00 | 0.00 | 0.00 | 17 | 1003.7 |
| 20260504195003 | 67 | 310 | 7.0 | 11.3 | 0.00 | 0.00 | 0.00 | 17 | 1003.7 |
| 20260504194501 | 67 | 334 | 6.1 | 11.3 | 0.00 | 0.00 | 0.00 | 17 | 1003.6 |
| 20260504194227 | 67 | 321 | 5.2 | 11.3 | 0.00 | 0.00 | 0.00 | 17 | 1003.8 |
| 20260504193502 | 67 | 259 | 5.2 | 11.3 | 0.00 | 0.00 | 0.00 | 17 | 1003.7 |
| 20260504193000 | 66 | 304 | 5.2 | 11.3 | 0.00 | 0.00 | 0.00 | 18 | 1004.0 |
| 20260504192501 | 66 | 291 | 4.3 | 11.3 | 0.00 | 0.00 | 0.00 | 18 | 1004.0 |
| 20260504192001 | 65 | 333 | 5.2 | 12.2 | 0.00 | 0.00 | 0.00 | 18 | 1004.1 |
| 20260504191504 | 65 | 294 | 7.0 | 12.2 | 0.00 | 0.00 | 0.00 | 18 | 1004.2 |
| 20260504191227 | 65 | 306 | 6.1 | 13.0 | 0.00 | 0.00 | 0.00 | 17 | 1004.2 |
| 20260504190500 | 66 | 39 | 7.0 | 13.9 | 0.00 | 0.00 | 0.00 | 18 | 1004.2 |
| 20260504190002 | 66 | 337 | 7.8 | 13.9 | 0.00 | 0.00 | 0.00 | 18 | 1004.4 |
| 20260504185500 | 67 | 341 | 5.2 | 13.0 | 0.00 | 0.00 | 0.00 | 18 | 1004.4 |
| 20260504185000 | 66 | 315 | 3.5 | 10.4 | 0.00 | 0.00 | 0.00 | 18 | 1004.4 |
| 20260504184503 | 66 | 233 | 3.5 | 10.4 | 0.00 | 0.00 | 0.00 | 19 | 1004.7 |
| 20260504184209 | 65 | 266 | 5.2 | 10.4 | 0.00 | 0.00 | 0.00 | 19 | 1004.8 |
| 20260504183001 | 65 | 250 | 6.1 | 12.2 | 0.00 | 0.00 | 0.00 | 19 | 1004.8 |
| 20260504182731 | 64 | 296 | 6.1 | 12.2 | 0.00 | 0.00 | 0.00 | 19 | 1004.9 |
| 20260504182000 | 65 | 325 | 4.3 | 10.4 | 0.00 | 0.00 | 0.00 | 19 | 1005.0 |
| 20260504181500 | 65 | 267 | 3.5 | 12.2 | 0.00 | 0.00 | 0.00 | 18 | 1005.0 |
| 20260504181002 | 65 | 342 | 2.6 | 12.2 | 0.00 | 0.00 | 0.00 | 20 | 1005.0 |
| 20260504180727 | 65 | 271 | 2.6 | 7.8 | 0.00 | 0.00 | 0.00 | 20 | 1005.2 |
| 20260504180118 | 64 | 163 | 3.5 | 7.8 | 0.00 | 0.00 | 0.00 | 20 | 1005.3 |
| 20260504175502 | 64 | 269 | 2.6 | 7.8 | 0.00 | 0.00 | 0.00 | 20 | 1005.3 |
| 20260504175001 | 64 | 315 | 2.6 | 7.8 | 0.00 | 0.00 | 0.00 | 21 | 1005.4 |
| 20260504174500 | 64 | 340 | 4.3 | 8.7 | 0.00 | 0.00 | 0.00 | 21 | 1005.4 |
| 20260504174000 | 64 | 82 | 3.5 | 8.7 | 0.00 | 0.00 | 0.00 | 21 | 1005.5 |
| 20260504173500 | 64 | 40 | 1.7 | 5.2 | 0.00 | 0.00 | 0.00 | 21 | 1005.7 |
| 20260504173452 | 65 | 142 | 1.7 | 7.0 | 0.00 | 0.00 | 0.00 | 23 | 1005.5 |
| 20260504172500 | 64 | 233 | 3.5 | 7.0 | 0.00 | 0.00 | 0.00 | 23 | 1005.7 |
| 20260504172001 | 63 | 62 | 3.5 | 7.0 | 0.00 | 0.00 | 0.00 | 24 | 1005.7 |
| 20260504171731 | 63 | 78 | 3.5 | 9.6 | 0.00 | 0.00 | 0.00 | 23 | 1005.7 |
| 20260504171001 | 63 | 171 | 4.3 | 9.6 | 0.00 | 0.00 | 0.00 | 24 | 1005.8 |
| 20260504170500 | 64 | 254 | 5.2 | 9.6 | 0.00 | 0.00 | 0.00 | 24 | 1005.8 |
| 20260504151004 | 50 | 53 | 6.1 | 7.8 | 0.00 | 0.00 | 0.00 | 40 | 1006.6 |
| 20260504150504 | 49 | 40 | 6.1 | 8.7 | 0.00 | 0.00 | 0.00 | 41 | 1006.5 |
| 20260504141005 | 44 | 82 | 0.9 | 3.5 | 0.00 | 0.00 | 0.00 | 48 | 1007.0 |
| 20260504140502 | 43 | 59 | 0.9 | 5.2 | 0.00 | 0.00 | 0.00 | 50 | 1007.0 |